Date String (YYYY-MM-DD hh:mm:ss) UTC,Instrument flags,Ambient pressure (hPa),Sample flow (lpm),Bypass flow (lpm),Sample temperature (°C),Ambient temperature (°C),ASC tube jacket temperature (°C),LED temperature (°C),Box temperature (°C),Sample RH (%),Span deviation,Mass concentration (μg/m³),Mass concentration (μg/m³),Mass concentration (μg/m³)
DateTimeUTC,F1_M11,P_M11,Q1_M11,Q2_M11,T1_M11,T2_M11,T3_M11,T4_M11,T5_M11,U1_M11,ZSPAN_M11,X0_M11,X2_M11,X1_M11
2021-09-23 00:00:00,,0830.1,5.01,0.00,29.5,28.5,00.0,38.5,31.4,10.5,0000.0,0009.67,0002.32,0001.16
2021-09-23 00:01:00,,0830.1,5.00,0.00,29.6,28.7,00.0,38.5,31.5,10.6,0000.0,0009.32,0002.34,0001.16
2021-09-23 00:02:00,,0830.1,5.00,0.00,29.6,28.8,00.0,38.5,31.6,10.7,0000.0,0009.45,0002.35,0001.17
2021-09-23 00:03:00,,0830.1,4.99,0.00,29.7,28.9,00.0,38.5,31.6,10.7,0000.0,0009.46,0002.38,0001.18
2021-09-23 00:04:00,,0830.1,5.02,0.00,29.7,27.8,00.0,38.6,31.3,10.5,0000.0,0009.84,0002.48,0001.20
2021-09-23 00:05:00,,0830.0,5.00,0.00,29.5,25.8,00.0,38.5,30.7,10.7,0000.0,0009.91,0002.43,0001.21
2021-09-23 00:06:00,,0830.1,5.00,0.00,29.4,25.7,00.0,38.5,30.7,10.8,0000.0,0010.69,0002.39,0001.21
2021-09-23 00:07:00,,0830.1,4.99,0.00,29.3,26.1,00.0,38.5,30.7,10.8,0000.0,0011.15,0002.41,0001.21
2021-09-23 00:08:00,,0830.1,5.00,0.00,29.3,26.6,00.0,38.4,30.8,10.7,0000.0,0012.31,0002.37,0001.20
2021-09-23 00:09:00,,0830.1,5.00,0.00,29.3,27.0,00.0,38.4,31.0,10.8,0000.0,0011.92,0002.37,0001.19
2021-09-23 00:10:00,,0830.2,4.99,0.00,29.3,27.4,00.0,38.4,31.1,10.9,0000.0,0011.19,0002.34,0001.18
2021-09-23 00:11:00,,0830.1,5.00,0.00,29.3,27.7,00.0,38.4,31.2,10.9,0000.0,0011.40,0002.24,0001.17
2021-09-23 00:12:00,,0830.1,5.01,0.00,29.4,28.0,00.0,38.4,31.3,10.8,0000.0,0011.72,0002.19,0001.18
2021-09-23 00:13:00,,0830.1,5.01,0.00,29.4,28.2,00.0,38.4,31.4,10.8,0000.0,0011.45,0002.18,0001.17
2021-09-23 00:14:00,,0830.1,4.99,0.00,29.5,28.4,00.0,38.4,31.4,10.7,0000.0,0012.11,0002.19,0001.17
2021-09-23 00:15:00,,0830.1,5.00,0.00,29.6,28.6,00.0,38.5,31.5,10.7,0000.0,0012.60,0002.13,0001.16
2021-09-23 00:16:00,,0830.2,5.00,0.00,29.6,28.7,00.0,38.5,31.5,11.0,0000.0,0012.05,0002.17,0001.16
2021-09-23 00:17:00,,0830.2,5.01,0.00,29.7,28.9,00.0,38.5,31.6,11.1,0000.0,0010.89,0002.20,0001.16
2021-09-23 00:18:00,,0830.2,5.00,0.00,29.7,29.0,00.0,38.6,31.7,11.1,0000.0,0010.35,0002.14,0001.16
2021-09-23 00:19:00,,0830.2,5.00,0.00,29.8,28.7,00.0,38.6,31.6,11.0,0000.0,0009.53,0002.09,0001.15
2021-09-23 00:20:00,,0830.2,5.00,0.00,29.6,26.7,00.0,38.6,31.0,11.2,0000.0,0009.64,0001.99,0001.15
2021-09-23 00:21:00,,0830.2,4.99,0.00,29.5,25.6,00.0,38.5,30.7,10.8,0000.0,0010.47,0001.99,0001.16
2021-09-23 00:22:00,,0830.1,5.01,0.00,29.4,25.9,00.0,38.5,30.8,11.0,0000.0,0010.91,0002.03,0001.16
2021-09-23 00:23:00,,0830.1,5.00,0.00,29.3,26.4,00.0,38.5,30.9,11.0,0000.0,0011.23,0002.11,0001.16
2021-09-23 00:24:00,,0830.2,5.00,0.00,29.3,26.9,00.0,38.5,31.0,10.9,0000.0,0011.38,0002.09,0001.16
2021-09-23 00:25:00,,0830.1,4.99,0.00,29.4,27.3,00.0,38.4,31.1,11.1,0000.0,0010.55,0002.04,0001.17
2021-09-23 00:26:00,,0830.1,5.01,0.00,29.4,27.6,00.0,38.4,31.2,10.9,0000.0,0009.36,0002.01,0001.18
2021-09-23 00:27:00,,0830.1,4.99,0.00,29.4,27.9,00.0,38.4,31.3,10.6,0000.0,0009.35,0001.98,0001.19
2021-09-23 00:28:00,,0830.1,5.01,0.00,29.5,28.2,00.0,38.5,31.4,10.6,0000.0,0009.51,0001.99,0001.19
2021-09-23 00:29:00,,0830.2,5.00,0.00,29.5,28.4,00.0,38.5,31.4,10.6,0000.0,0009.34,0002.09,0001.20
2021-09-23 00:30:00,,0830.1,4.99,0.00,29.6,28.6,00.0,38.5,31.5,10.7,0000.0,0008.97,0002.08,0001.21
2021-09-23 00:31:00,,0830.1,5.01,0.00,29.6,28.7,00.0,38.5,31.6,10.7,0000.0,0008.72,0002.12,0001.21
2021-09-23 00:32:00,,0830.1,5.00,0.00,29.7,28.8,00.0,38.5,31.6,10.8,0000.0,0008.27,0002.19,0001.21
2021-09-23 00:33:00,,0830.1,5.00,0.00,29.7,28.9,00.0,38.6,31.7,10.7,0000.0,0007.67,0002.22,0001.22
2021-09-23 00:34:00,,0830.2,5.00,0.00,29.8,29.0,00.0,38.6,31.7,10.7,0000.0,0006.72,0002.18,0001.21
2021-09-23 00:35:00,,0830.1,5.01,0.00,29.8,27.8,00.0,38.6,31.4,10.6,0000.0,0006.38,0002.20,0001.21
2021-09-23 00:36:00,,0830.1,4.99,0.00,29.6,26.6,00.0,38.6,31.1,10.7,0000.0,0006.49,0002.21,0001.19
2021-09-23 00:37:00,,0830.1,5.00,0.00,29.6,26.8,00.0,38.6,31.1,10.8,0000.0,0006.90,0002.28,0001.18
2021-09-23 00:38:00,,0830.1,5.01,0.00,29.5,27.1,00.0,38.6,31.2,10.9,0000.0,0007.18,0002.32,0001.17
2021-09-23 00:39:00,,0830.0,5.00,0.00,29.5,27.4,00.0,38.6,31.2,11.0,0000.0,0008.17,0002.45,0001.16
2021-09-23 00:40:00,,0830.1,4.99,0.00,29.5,27.8,00.0,38.6,31.3,11.0,0000.0,0008.56,0002.43,0001.16
2021-09-23 00:41:00,,0830.1,5.01,0.00,29.6,28.0,00.0,38.6,31.4,11.0,0000.0,0010.42,0002.48,0001.15
2021-09-23 00:42:00,,0830.1,4.98,0.00,29.6,28.3,00.0,38.6,31.5,11.0,0000.0,0010.88,0002.47,0001.16
2021-09-23 00:43:00,,0830.1,5.01,0.00,29.7,28.5,00.0,38.6,31.6,10.9,0000.0,0011.57,0002.46,0001.16
2021-09-23 00:44:00,,0830.1,4.99,0.00,29.7,28.7,00.0,38.6,31.6,10.9,0000.0,0011.82,0002.48,0001.16
2021-09-23 00:45:00,,0830.1,5.00,0.00,29.8,28.8,00.0,38.6,31.7,10.9,0000.0,0011.90,0002.54,0001.17
2021-09-23 00:46:00,,0830.1,5.00,0.00,29.8,28.7,00.0,38.7,31.7,10.8,0000.0,0012.36,0002.63,0001.17
2021-09-23 00:47:00,,0830.0,4.99,0.00,29.7,26.9,00.0,38.7,31.1,10.7,0000.0,0012.48,0002.63,0001.17
2021-09-23 00:48:00,,0830.0,5.00,0.00,29.5,25.4,00.0,38.6,30.7,10.8,0000.0,0012.47,0002.61,0001.18
2021-09-23 00:49:00,,0830.0,5.00,0.00,29.4,25.6,00.0,38.6,30.7,10.9,0000.0,0012.79,0002.56,0001.17
2021-09-23 00:50:00,,0830.0,4.99,0.00,29.3,26.1,00.0,38.5,30.8,11.0,0000.0,0011.91,0002.45,0001.16
2021-09-23 00:51:00,,0830.0,5.00,0.00,29.3,26.6,00.0,38.5,30.9,11.1,0000.0,0011.80,0002.45,0001.16
2021-09-23 00:52:00,,0830.0,5.01,0.00,29.3,27.0,00.0,38.5,31.0,11.1,0000.0,0010.70,0002.47,0001.16
2021-09-23 00:53:00,,0830.1,5.01,0.00,29.4,27.4,00.0,38.5,31.1,11.1,0000.0,0010.90,0002.56,0001.15
2021-09-23 00:54:00,,0830.1,4.98,0.00,29.4,27.7,00.0,38.5,31.2,11.1,0000.0,0010.02,0002.64,0001.16
2021-09-23 00:55:00,,0830.1,5.00,0.00,29.4,28.0,00.0,38.5,31.3,11.0,0000.0,0009.89,0002.69,0001.16
2021-09-23 00:56:00,,0830.1,5.01,0.00,29.5,28.2,00.0,38.5,31.3,11.0,0000.0,0010.09,0002.69,0001.16
2021-09-23 00:57:00,,0830.1,4.99,0.00,29.5,28.4,00.0,38.5,31.4,11.0,0000.0,0010.49,0002.79,0001.17
2021-09-23 00:58:00,,0830.1,5.00,0.00,29.6,28.6,00.0,38.5,31.5,11.0,0000.0,0010.82,0002.89,0001.18
2021-09-23 00:59:00,,0830.1,4.99,0.00,29.6,28.7,00.0,38.5,31.5,11.0,0000.0,0011.99,0003.04,0001.20
